STARLINK-1319 (45379 NORAD) Tracking and Keplerian Element Data

This shows tracking and keplerian element data for the satellite.

Feedback or suggestion? Click here.




ElementValue
Catalog45379
NameSTARLINK-1319
Epoch Orbit1145
Epoch Day148.91667824
Epoch Year2020
RAAN286.7298
Inclination53.0006
Eccentricity0.0001361
Argument of Perigee102.8066
Mean Anonmoly187.0645
Mean Motion15.05579823
Decay Rate5.517E-05
L11 45379U 20019V 20148.91667824 .00005517 00000-0 39754-3 0 9997
L22 45379 53.0006 286.7298 0001361 102.8066 187.0645 15.05579823 11457

Live tracking and technical data element details for STARLINK-1319 (NORAD 45379). STARLINK-1319 can be tracked NOW for your location showing map with azimuth and elevation plus other details from your city location.

Track the satellite on the map from your city or location and see movement details for azimuth, elevation, latitude, longitude, range, height, and movement on the map or in text.







IsCatalogInMostPopularTable: catalog: 45379, numindb: 13
Update: records affected: 1



GetName: 45379 STARLINK-1319

Hit Count: updated at: Sat, 30 May 2020 14:08:59 GMT